Weather History for KDTN - March, 2014

Change the Weather History Date:

Sunday, March 30, 2014

  Actual Average (KSHV) Record (KSHV)
Temperature  
Mean Temperature 56 °F 61 °F  
Max Temperature 71 °F 73 °F 91 °F (1946)
Min Temperature 43 °F 49 °F 32 °F (1987)
Degree Days  
Heating Degree Days 8 5  
Month to date heating degree days 245  
Since 1 July heating degree days 2127  
Cooling Degree Days 0 2  
Month to date cooling degree days 29  
Year to date cooling degree days 39  
Growing Degree Days 6 (Base 50)    
Moisture  
Dew Point 44 °F    
Average Humidity 65    
Maximum Humidity 96    
Minimum Humidity 39    
Precipitation  
Precipitation 0.00 in 0.14 in 3.72 in (1932)
Month to date precipitation 3.99  
Year to date precipitation 12.94  
Snow  
Snow 0.00 in - - ()
Month to date snowfall  
Since 1 July snowfall  
Snow Depth -    
Sea Level Pressure  
Sea Level Pressure 30.18 in    
Wind  
Wind Speed 4 mph (SE)    
Max Wind Speed 14 mph    
Max Gust Speed 18 mph    
Visibility 10 miles    
Events      
T = Trace of Precipitation, MM = Missing Value Source: NWS Daily Summary

Daily Weather History Graph

Daily Weather History Graph

Search for Another Location

Airport or City:

Trip Planner

Search our weather history database for the weather conditions in past years. The results will help you decide how hot, cold, wet, or windy it might be!

Date:

Astronomy

Mar. 30, 2014 Rise Set
Actual Time 7:05 AM CDT 7:33 PM CDT
Civil Twilight 6:40 AM CDT 7:58 PM CDT
Nautical Twilight 6:12 AM CDT 8:27 PM CDT
Astronomical Twilight 5:42 AM CDT 8:56 PM CDT
Moon 6:51 AM CDT 7:45 PM CDT
Length of Visible Light 13h 17m
Length of Day
12h 27m
Waning Crescent, 0% of the Moon is Illuminated
Mar 30
Waning Crescent
Mar 30
New
Apr 7
First Quarter
Apr 15
Full
Apr 22
Last Quarter

Hourly Weather History & Observations

Time (CDT) Temp. Windchill Dew Point Humidity Pressure Visibility Wind Dir Wind Speed Gust Speed Precip Events Conditions
12:53 AM 48.9 °F - 46.0 °F 90% 30.23 in 10.0 mi Calm Calm - N/A   Clear
1:53 AM 48.0 °F - 44.1 °F 86% 30.23 in 10.0 mi Calm Calm - N/A   Clear
2:53 AM 44.1 °F 42.5 °F 43.0 °F 96% 30.23 in 10.0 mi East 3.5 mph - N/A   Clear
3:53 AM 45.0 °F - 42.1 °F 90% 30.22 in 10.0 mi Calm Calm - N/A   Clear
4:53 AM 45.0 °F - 42.1 °F 90% 30.22 in 10.0 mi Calm Calm - N/A   Clear
5:53 AM 46.0 °F - 43.0 °F 89% 30.23 in 10.0 mi Calm Calm - N/A   Clear
6:53 AM 43.0 °F - 41.0 °F 93% 30.24 in 10.0 mi Calm Calm - N/A   Clear
7:53 AM 45.0 °F - 43.0 °F 93% 30.25 in 10.0 mi Calm Calm - N/A   Clear
8:53 AM 54.0 °F - 46.0 °F 75% 30.27 in 10.0 mi Calm Calm - N/A   Clear
9:53 AM 59.0 °F - 45.0 °F 60% 30.27 in 10.0 mi SSE 9.2 mph - N/A   Clear
10:53 AM 62.1 °F - 45.0 °F 53% 30.27 in 10.0 mi SE 11.5 mph 17.3 mph N/A   Clear
11:53 AM 64.0 °F - 43.0 °F 46% 30.26 in 10.0 mi SE 10.4 mph - N/A   Clear
12:53 PM 66.0 °F - 44.1 °F 45% 30.24 in 10.0 mi South 6.9 mph - N/A   Clear
1:53 PM 68.0 °F - 46.0 °F 45% 30.21 in 10.0 mi ESE 9.2 mph - N/A   Clear
2:53 PM 69.1 °F - 45.0 °F 42% 30.17 in 10.0 mi ESE 9.2 mph - N/A   Clear
3:53 PM 70.0 °F - 46.0 °F 42% 30.14 in 10.0 mi SE 12.7 mph - N/A   Clear
4:53 PM 70.0 °F - 46.0 °F 42% 30.11 in 10.0 mi SSE 10.4 mph - N/A   Clear
5:53 PM 70.0 °F - 44.1 °F 39% 30.08 in 10.0 mi SE 13.8 mph 18.4 mph N/A   Clear
6:53 PM 68.0 °F - 45.0 °F 43% 30.07 in 10.0 mi SSE 11.5 mph - N/A   Clear
7:53 PM 63.0 °F - 45.0 °F 52% 30.07 in 10.0 mi SSE 5.8 mph - N/A   Clear
8:53 PM 61.0 °F - 45.0 °F 56% 30.08 in 10.0 mi SSE 6.9 mph - N/A   Clear
9:53 PM 61.0 °F - 45.0 °F 56% 30.09 in 10.0 mi SE 5.8 mph - N/A   Clear
10:53 PM 57.0 °F - 46.0 °F 67% 30.07 in 10.0 mi SE 6.9 mph - N/A   Clear
11:53 PM 55.9 °F - 45.0 °F 67% 30.07 in 10.0 mi SE 6.9 mph - N/A   Clear